| time (UTC) | temp C | wind direction | speed KPH | gust KPH | rain 1hr cm | rain 24hr cm | rain mn cm | humidity % | barometer mb |
| 20260906184038 | 36 | 172 | 3.2 | 9.7 | 0.00 | 0.00 | 0.00 | 46 | 1013.6 |
| 20260906183037 | 36 | 314 | 3.2 | 9.7 | 0.00 | 0.00 | 0.00 | 47 | 1013.7 |
| 20260906182537 | 36 | 195 | 6.4 | 9.7 | 0.00 | 0.00 | 0.00 | 46 | 1013.8 |
| 20260906182037 | 36 | 203 | 4.8 | 9.7 | 0.00 | 0.00 | 0.00 | 49 | 1013.9 |
| 20260906181537 | 36 | 228 | 3.2 | 8.0 | 0.00 | 0.00 | 0.00 | 49 | 1013.9 |
| 20260906181036 | 36 | 155 | 4.8 | 9.7 | 0.00 | 0.00 | 0.00 | 50 | 1013.9 |
| 20260906180536 | 35 | 182 | 3.2 | 9.7 | 0.00 | 0.00 | 0.00 | 50 | 1014.1 |
| 20260906180036 | 35 | 230 | 1.6 | 9.7 | 0.00 | 0.00 | 0.00 | 54 | 1014.2 |
| 20260906175036 | 35 | 251 | 4.8 | 8.0 | 0.00 | 0.00 | 0.00 | 54 | 1014.5 |
| 20260906174536 | 35 | 141 | 1.6 | 8.0 | 0.00 | 0.00 | 0.00 | 50 | 1014.6 |
| 20260906174036 | 35 | 145 | 4.8 | 16.1 | 0.00 | 0.00 | 0.00 | 51 | 1014.7 |
| 20260906173535 | 35 | 107 | 4.8 | 16.1 | 0.00 | 0.00 | 0.00 | 53 | 1014.7 |
| 20260906172536 | 35 | 186 | 3.2 | 11.3 | 0.00 | 0.00 | 0.00 | 53 | 1014.9 |
| 20260906171536 | 35 | 102 | 3.2 | 8.0 | 0.00 | 0.00 | 0.00 | 53 | 1015.0 |
| 20260906170535 | 35 | 49 | 4.8 | 9.7 | 0.00 | 0.00 | 0.00 | 53 | 1015.2 |
| 20260906170035 | 35 | 99 | 6.4 | 9.7 | 0.00 | 0.00 | 0.00 | 53 | 1015.2 |
| 20260906165534 | 35 | 118 | 4.8 | 9.7 | 0.00 | 0.00 | 0.00 | 52 | 1015.2 |
| 20260906165034 | 34 | 41 | 6.4 | 9.7 | 0.00 | 0.00 | 0.00 | 54 | 1015.3 |
| 20260906164535 | 34 | 66 | 3.2 | 9.7 | 0.00 | 0.00 | 0.00 | 56 | 1015.3 |
| 20260906164035 | 34 | 118 | 3.2 | 9.7 | 0.00 | 0.00 | 0.00 | 55 | 1015.5 |
| 20260906163535 | 33 | 87 | 6.4 | 9.7 | 0.00 | 0.00 | 0.00 | 54 | 1015.4 |
| 20260906161531 | 33 | 180 | 1.6 | 8.0 | 0.00 | 0.00 | 0.00 | 56 | 1015.4 |
| 20260906161031 | 33 | 135 | 1.6 | 8.0 | 0.00 | 0.00 | 0.00 | 57 | 1015.4 |
| 20260906160531 | 33 | 165 | 4.8 | 8.0 | 0.00 | 0.00 | 0.00 | 56 | 1015.5 |
| 20260906160031 | 33 | 106 | 4.8 | 8.0 | 0.00 | 0.00 | 0.00 | 57 | 1015.5 |
| 20260906155531 | 33 | 209 | 0.0 | 8.0 | 0.00 | 0.00 | 0.00 | 57 | 1015.4 |
| 20260906155031 | 33 | 155 | 4.8 | 8.0 | 0.00 | 0.00 | 0.00 | 58 | 1015.3 |
| 20260906154031 | 33 | 62 | 3.2 | 8.0 | 0.00 | 0.00 | 0.00 | 60 | 1015.3 |
| 20260906153529 | 32 | 155 | 3.2 | 8.0 | 0.00 | 0.00 | 0.00 | 59 | 1015.2 |
| 20260906153030 | 32 | 109 | 4.8 | 8.0 | 0.00 | 0.00 | 0.00 | 59 | 1015.2 |
| 20260906152027 | 32 | 99 | 4.8 | 8.0 | 0.00 | 0.00 | 0.00 | 61 | 1015.1 |
| 20260906151527 | 32 | 68 | 6.4 | 8.0 | 0.00 | 0.00 | 0.00 | 62 | 1015.0 |
| 20260906150526 | 31 | 62 | 3.2 | 6.4 | 0.00 | 0.00 | 0.00 | 65 | 1015.0 |
| 20260906150027 | 31 | 172 | 0.0 | 8.0 | 0.00 | 0.00 | 0.00 | 65 | 1015.1 |
| 20260906145526 | 31 | 178 | 4.8 | 8.0 | 0.00 | 0.00 | 0.00 | 65 | 1015.1 |
| 20260906145026 | 31 | 140 | 4.8 | 8.0 | 0.00 | 0.00 | 0.00 | 64 | 1015.1 |
| 20260906144524 | 30 | 80 | 4.8 | 9.7 | 0.00 | 0.00 | 0.00 | 66 | 1015.1 |
| 20260906144024 | 30 | 73 | 6.4 | 9.7 | 0.00 | 0.00 | 0.00 | 68 | 1015.1 |
| 20260906143521 | 30 | 58 | 3.2 | 6.4 | 0.00 | 0.00 | 0.00 | 69 | 1015.1 |
| 20260906143021 | 30 | 90 | 3.2 | 6.4 | 0.00 | 0.00 | 0.00 | 72 | 1015.2 |
| 20260906142522 | 29 | 144 | 3.2 | 6.4 | 0.00 | 0.00 | 0.00 | 72 | 1015.1 |
| 20260906141519 | 28 | 69 | 1.6 | 4.8 | 0.00 | 0.00 | 0.00 | 75 | 1015.1 |
| 20260906141020 | 28 | 250 | 1.6 | 4.8 | 0.00 | 0.00 | 0.00 | 75 | 1015.0 |
| 20260906140518 | 28 | 92 | 3.2 | 4.8 | 0.00 | 0.00 | 0.00 | 75 | 1015.1 |
| 20260906140018 | 28 | 99 | 3.2 | 4.8 | 0.00 | 0.00 | 0.00 | 76 | 1015.0 |
| 20260906135518 | 27 | 114 | 3.2 | 3.2 | 0.00 | 0.00 | 0.00 | 77 | 1015.0 |
| 20260906135015 | 27 | 82 | 1.6 | 4.8 | 0.00 | 0.00 | 0.00 | 78 | 1015.0 |
| 20260906134516 | 27 | 82 | 3.2 | 4.8 | 0.00 | 0.00 | 0.00 | 79 | 1014.9 |
| 20260906134016 | 26 | 262 | 3.2 | 4.8 | 0.00 | 0.00 | 0.00 | 80 | 1015.0 |
| 20260906133014 | 26 | 262 | 0.0 | 1.6 | 0.00 | 0.00 | 0.00 | 83 | 1014.8 |
| 20260906132514 | 25 | 262 | 0.0 | 3.2 | 0.00 | 0.00 | 0.00 | 84 | 1014.7 |
| 20260906131512 | 25 | 262 | 0.0 | 0.0 | 0.00 | 0.00 | 0.00 | 87 | 1014.6 |
| 20260906131013 | 24 | 262 | 0.0 | 1.6 | 0.00 | 0.00 | 0.00 | 88 | 1014.5 |
| 20260906130509 | 23 | 262 | 0.0 | 3.2 | 0.00 | 0.00 | 0.00 | 91 | 1014.3 |
| 20260906130010 | 23 | 76 | 0.0 | 3.2 | 0.00 | 0.00 | 0.00 | 93 | 1014.5 |
| 20260906125510 | 22 | 76 | 1.6 | 3.2 | 0.00 | 0.00 | 0.00 | 95 | 1014.3 |
| 20260906125008 | 22 | 76 | 0.0 | 3.2 | 0.00 | 0.00 | 0.00 | 96 | 1014.3 |
| 20260906124507 | 21 | 76 | 1.6 | 3.2 | 0.00 | 0.00 | 0.00 | 96 | 1014.3 |
| 20260906123506 | 21 | 76 | 0.0 | 3.2 | 0.00 | 0.00 | 0.00 | 97 | 1014.0 |
| 20260906123006 | 21 | 76 | 1.6 | 3.2 | 0.00 | 0.00 | 0.00 | 96 | 1014.0 |
| 20260906122506 | 21 | 76 | 1.6 | 3.2 | 0.00 | 0.00 | 0.00 | 96 | 1014.0 |
| 20260906122007 | 21 | 76 | 1.6 | 3.2 | 0.00 | 0.00 | 0.00 | 96 | 1013.9 |
| 20260906121502 | 20 | 76 | 0.0 | 1.6 | 0.00 | 0.00 | 0.00 | 96 | 1013.9 |
| 20260906121002 | 20 | 76 | 0.0 | 0.0 | 0.00 | 0.00 | 0.00 | 96 | 1013.9 |
| 20260906120503 | 20 | 76 | 0.0 | 0.0 | 0.00 | 0.00 | 0.00 | 96 | 1013.9 |
| 20260906120003 | 20 | 76 | 0.0 | 0.0 | 0.00 | 0.00 | 0.00 | 96 | 1013.8 |
| 20260906115503 | 20 | 76 | 0.0 | 0.0 | 0.00 | 0.00 | 0.00 | 96 | 1013.8 |
| 20260906115002 | 20 | 76 | 0.0 | 0.0 | 0.00 | 0.00 | 0.00 | 96 | 1013.7 |
| 20260906114502 | 20 | 76 | 0.0 | 0.0 | 0.00 | 0.00 | 0.00 | 96 | 1013.7 |
| 20260906114002 | 20 | 76 | 0.0 | 0.0 | 0.00 | 0.00 | 0.00 | 96 | 1013.7 |
| 20260906113502 | 20 | 76 | 0.0 | 1.6 | 0.00 | 0.00 | 0.00 | 96 | 1013.7 |
| 20260906113003 | 20 | 76 | 0.0 | 3.2 | 0.00 | 0.00 | 0.00 | 96 | 1013.6 |
| 20260906112502 | 20 | 113 | 0.0 | 3.2 | 0.00 | 0.00 | 0.00 | 96 | 1013.7 |
| 20260906112002 | 20 | 113 | 1.6 | 3.2 | 0.00 | 0.00 | 0.00 | 96 | 1013.7 |
| 20260906111502 | 20 | 113 | 0.0 | 1.6 | 0.00 | 0.00 | 0.00 | 96 | 1013.6 |
| 20260906111002 | 20 | 24 | 0.0 | 0.0 | 0.00 | 0.00 | 0.00 | 96 | 1013.7 |
| 20260906110502 | 20 | 24 | 0.0 | 0.0 | 0.00 | 0.00 | 0.00 | 96 | 1013.6 |
| 20260906110003 | 20 | 24 | 0.0 | 3.2 | 0.00 | 0.00 | 0.00 | 96 | 1013.6 |
| 20260906105503 | 20 | 24 | 1.6 | 3.2 | 0.00 | 0.00 | 0.00 | 96 | 1013.6 |
| 20260906105003 | 20 | 24 | 0.0 | 0.0 | 0.00 | 0.00 | 0.00 | 96 | 1013.6 |
| 20260906104503 | 21 | 24 | 0.0 | 0.0 | 0.00 | 0.00 | 0.00 | 96 | 1013.6 |
| 20260906104002 | 20 | 24 | 0.0 | 0.0 | 0.00 | 0.00 | 0.00 | 96 | 1013.6 |
| 20260906103502 | 20 | 24 | 0.0 | 0.0 | 0.00 | 0.00 | 0.00 | 96 | 1013.7 |
| 20260906103002 | 21 | 24 | 0.0 | 3.2 | 0.00 | 0.00 | 0.00 | 96 | 1013.6 |
| 20260906102502 | 21 | 24 | 0.0 | 3.2 | 0.00 | 0.00 | 0.00 | 96 | 1013.6 |
| 20260906102003 | 21 | 24 | 0.0 | 0.0 | 0.00 | 0.00 | 0.00 | 96 | 1013.7 |
| 20260906101502 | 21 | 24 | 0.0 | 0.0 | 0.00 | 0.00 | 0.00 | 96 | 1013.6 |
| 20260906101002 | 21 | 24 | 0.0 | 0.0 | 0.00 | 0.00 | 0.00 | 96 | 1013.6 |
| 20260906100502 | 21 | 24 | 0.0 | 0.0 | 0.00 | 0.00 | 0.00 | 96 | 1013.6 |
| 20260906100002 | 21 | 24 | 0.0 | 0.0 | 0.00 | 0.00 | 0.00 | 96 | 1013.6 |
| 20260906095502 | 21 | 24 | 0.0 | 1.6 | 0.00 | 0.00 | 0.00 | 96 | 1013.4 |
| 20260906095001 | 21 | 25 | 0.0 | 1.6 | 0.00 | 0.00 | 0.00 | 96 | 1013.4 |
| 20260906093503 | 21 | 45 | 0.0 | 0.0 | 0.00 | 0.00 | 0.00 | 96 | 1013.3 |
| 20260906093003 | 21 | 45 | 0.0 | 0.0 | 0.00 | 0.00 | 0.00 | 96 | 1013.2 |
| 20260906092502 | 21 | 45 | 0.0 | 0.0 | 0.00 | 0.00 | 0.00 | 96 | 1013.2 |
| 20260906091003 | 21 | 45 | 0.0 | 0.0 | 0.00 | 0.00 | 0.00 | 96 | 1013.1 |
| 20260906090502 | 21 | 45 | 0.0 | 0.0 | 0.00 | 0.00 | 0.00 | 96 | 1013.2 |
| 20260906090002 | 21 | 45 | 0.0 | 0.0 | 0.00 | 0.00 | 0.00 | 96 | 1013.2 |
| 20260906085503 | 21 | 45 | 0.0 | 0.0 | 0.00 | 0.00 | 0.00 | 96 | 1013.1 |
| 20260906085002 | 21 | 45 | 0.0 | 0.0 | 0.00 | 0.00 | 0.00 | 96 | 1013.1 |
| 20260906084503 | 21 | 45 | 0.0 | 0.0 | 0.00 | 0.00 | 0.00 | 96 | 1013.1 |
| 20260906084003 | 21 | 45 | 0.0 | 0.0 | 0.00 | 0.00 | 0.00 | 95 | 1013.1 |
| 20260906083503 | 21 | 45 | 0.0 | 0.0 | 0.00 | 0.00 | 0.00 | 95 | 1013.1 |
| 20260906083003 | 21 | 45 | 0.0 | 0.0 | 0.00 | 0.00 | 0.00 | 96 | 1013.0 |
| 20260906082502 | 21 | 45 | 0.0 | 0.0 | 0.00 | 0.00 | 0.00 | 95 | 1013.0 |
| 20260906081502 | 21 | 45 | 0.0 | 1.6 | 0.00 | 0.00 | 0.00 | 95 | 1013.0 |
| 20260906081002 | 21 | 45 | 0.0 | 1.6 | 0.00 | 0.00 | 0.00 | 95 | 1013.0 |
| 20260906080502 | 21 | 117 | 0.0 | 0.0 | 0.00 | 0.00 | 0.00 | 95 | 1013.0 |
| 20260906080002 | 21 | 117 | 0.0 | 0.0 | 0.00 | 0.00 | 0.00 | 95 | 1013.1 |
| 20260906075002 | 21 | 118 | 0.0 | 0.0 | 0.00 | 0.00 | 0.00 | 95 | 1013.1 |
| 20260906074503 | 21 | 118 | 0.0 | 0.0 | 0.00 | 0.00 | 0.00 | 95 | 1013.0 |
| 20260906074002 | 22 | 118 | 0.0 | 0.0 | 0.00 | 0.00 | 0.00 | 95 | 1013.1 |
| 20260906073502 | 22 | 118 | 0.0 | 0.0 | 0.00 | 0.00 | 0.00 | 94 | 1013.0 |
| 20260906073003 | 22 | 118 | 0.0 | 0.0 | 0.00 | 0.00 | 0.00 | 94 | 1013.0 |
| 20260906072503 | 22 | 118 | 0.0 | 1.6 | 0.00 | 0.00 | 0.00 | 95 | 1013.0 |
| 20260906072003 | 22 | 118 | 0.0 | 1.6 | 0.00 | 0.00 | 0.00 | 94 | 1013.1 |
| 20260906070503 | 22 | 118 | 0.0 | 1.6 | 0.00 | 0.00 | 0.00 | 94 | 1013.1 |
| 20260906070003 | 22 | 118 | 0.0 | 1.6 | 0.00 | 0.00 | 0.00 | 94 | 1013.2 |
| 20260906065503 | 22 | 118 | 0.0 | 1.6 | 0.00 | 0.00 | 0.00 | 94 | 1013.2 |
| 20260906065002 | 22 | 118 | 0.0 | 0.0 | 0.00 | 0.00 | 0.00 | 94 | 1013.2 |
| 20260906064002 | 22 | 118 | 0.0 | 0.0 | 0.00 | 0.00 | 0.00 | 94 | 1013.3 |
| 20260906063502 | 22 | 118 | 0.0 | 0.0 | 0.00 | 0.00 | 0.00 | 94 | 1013.4 |
| 20260906062503 | 22 | 118 | 0.0 | 0.0 | 0.00 | 0.00 | 0.00 | 94 | 1013.4 |
| 20260906062002 | 22 | 118 | 0.0 | 0.0 | 0.00 | 0.00 | 0.00 | 94 | 1013.4 |
| 20260906061503 | 22 | 118 | 0.0 | 0.0 | 0.00 | 0.00 | 0.00 | 94 | 1013.3 |
| 20260906061003 | 22 | 118 | 0.0 | 0.0 | 0.00 | 0.00 | 0.00 | 94 | 1013.4 |
| 20260906060502 | 22 | 118 | 0.0 | 0.0 | 0.00 | 0.00 | 0.00 | 94 | 1013.4 |
| 20260906060002 | 22 | 118 | 0.0 | 0.0 | 0.00 | 0.00 | 0.00 | 94 | 1013.4 |
| 20260906055503 | 22 | 118 | 0.0 | 0.0 | 0.00 | 0.00 | 0.00 | 94 | 1013.5 |
| 20260906055003 | 22 | 118 | 0.0 | 0.0 | 0.00 | 0.00 | 0.00 | 94 | 1013.5 |
| 20260906054503 | 22 | 118 | 0.0 | 0.0 | 0.00 | 0.00 | 0.00 | 94 | 1013.6 |
| 20260906053002 | 22 | 118 | 0.0 | 0.0 | 0.00 | 0.00 | 0.00 | 93 | 1013.7 |
| 20260906052502 | 22 | 118 | 0.0 | 0.0 | 0.00 | 0.00 | 0.00 | 93 | 1013.6 |
| 20260906052002 | 22 | 118 | 0.0 | 1.6 | 0.00 | 0.00 | 0.00 | 93 | 1013.6 |
| 20260906051503 | 23 | 118 | 0.0 | 1.6 | 0.00 | 0.00 | 0.00 | 93 | 1013.6 |
| 20260906050002 | 23 | 118 | 0.0 | 0.0 | 0.00 | 0.00 | 0.00 | 93 | 1013.5 |
| 20260906045502 | 23 | 118 | 0.0 | 1.6 | 0.00 | 0.00 | 0.00 | 93 | 1013.5 |
| 20260906045002 | 23 | 118 | 0.0 | 3.2 | 0.00 | 0.00 | 0.00 | 92 | 1013.5 |
| 20260906044503 | 23 | 118 | 0.0 | 3.2 | 0.00 | 0.00 | 0.00 | 92 | 1013.5 |
| 20260906044003 | 23 | 118 | 0.0 | 3.2 | 0.00 | 0.00 | 0.00 | 92 | 1013.5 |
| 20260906043002 | 23 | 118 | 0.0 | 0.0 | 0.00 | 0.00 | 0.00 | 92 | 1013.5 |
| 20260906042502 | 23 | 118 | 0.0 | 0.0 | 0.00 | 0.00 | 0.00 | 91 | 1013.5 |
| 20260906042003 | 23 | 118 | 0.0 | 1.6 | 0.00 | 0.00 | 0.00 | 91 | 1013.3 |
| 20260906041502 | 23 | 118 | 0.0 | 1.6 | 0.00 | 0.00 | 0.00 | 91 | 1013.3 |
| 20260906041003 | 23 | 118 | 0.0 | 1.6 | 0.00 | 0.00 | 0.00 | 91 | 1013.3 |
| 20260906040503 | 23 | 118 | 0.0 | 0.0 | 0.00 | 0.00 | 0.00 | 91 | 1013.3 |
| 20260906040003 | 23 | 118 | 0.0 | 0.0 | 0.00 | 0.00 | 0.00 | 90 | 1013.3 |
| 20260906035002 | 23 | 118 | 0.0 | 1.6 | 0.00 | 0.00 | 0.00 | 90 | 1013.3 |
| 20260906034502 | 23 | 118 | 0.0 | 1.6 | 0.00 | 0.00 | 0.00 | 90 | 1013.1 |
| 20260906034003 | 23 | 118 | 0.0 | 1.6 | 0.00 | 0.00 | 0.00 | 90 | 1013.1 |
| 20260906033002 | 24 | 118 | 0.0 | 1.6 | 0.00 | 0.00 | 0.00 | 90 | 1013.0 |
| 20260906032002 | 24 | 118 | 0.0 | 1.6 | 0.00 | 0.00 | 0.00 | 89 | 1012.9 |
| 20260906031502 | 24 | 118 | 0.0 | 1.6 | 0.00 | 0.00 | 0.00 | 89 | 1012.9 |
| 20260906031003 | 24 | 118 | 0.0 | 0.0 | 0.00 | 0.00 | 0.00 | 89 | 1012.9 |
| 20260906030503 | 25 | 118 | 0.0 | 0.0 | 0.00 | 0.00 | 0.00 | 88 | 1012.8 |
| 20260906030003 | 25 | 118 | 0.0 | 1.6 | 0.00 | 0.00 | 0.00 | 88 | 1012.8 |
| 20260906025503 | 25 | 118 | 0.0 | 1.6 | 0.00 | 0.00 | 0.00 | 88 | 1012.8 |
| 20260906025003 | 25 | 118 | 0.0 | 0.0 | 0.00 | 0.00 | 0.00 | 88 | 1012.6 |
| 20260906024502 | 25 | 118 | 0.0 | 1.6 | 0.00 | 0.00 | 0.00 | 88 | 1012.5 |
| 20260906023503 | 25 | 118 | 0.0 | 0.0 | 0.00 | 0.00 | 0.00 | 87 | 1012.3 |
| 20260906023003 | 25 | 118 | 0.0 | 1.6 | 0.00 | 0.00 | 0.00 | 87 | 1012.3 |
| 20260906022002 | 25 | 118 | 0.0 | 0.0 | 0.00 | 0.00 | 0.00 | 88 | 1012.0 |
| 20260906021502 | 25 | 118 | 0.0 | 0.0 | 0.00 | 0.00 | 0.00 | 87 | 1012.0 |
| 20260906021003 | 25 | 118 | 0.0 | 0.0 | 0.00 | 0.00 | 0.00 | 87 | 1012.0 |
| 20260906020503 | 25 | 118 | 0.0 | 0.0 | 0.00 | 0.00 | 0.00 | 87 | 1011.9 |
| 20260906015503 | 25 | 118 | 0.0 | 1.6 | 0.00 | 0.00 | 0.00 | 86 | 1011.8 |
| 20260906015003 | 25 | 118 | 0.0 | 1.6 | 0.00 | 0.00 | 0.00 | 86 | 1011.7 |
| 20260906014503 | 25 | 118 | 0.0 | 1.6 | 0.00 | 0.00 | 0.00 | 86 | 1011.6 |
| 20260906014003 | 25 | 118 | 0.0 | 1.6 | 0.00 | 0.00 | 0.00 | 86 | 1011.5 |
| 20260906013502 | 25 | 118 | 0.0 | 0.0 | 0.00 | 0.00 | 0.00 | 87 | 1011.4 |
| 20260906013002 | 25 | 118 | 0.0 | 0.0 | 0.00 | 0.00 | 0.00 | 87 | 1011.4 |
| 20260906012502 | 25 | 118 | 0.0 | 0.0 | 0.00 | 0.00 | 0.00 | 87 | 1011.4 |
| 20260906012002 | 25 | 118 | 0.0 | 1.6 | 0.00 | 0.00 | 0.00 | 87 | 1011.3 |
| 20260906011501 | 26 | 118 | 0.0 | 1.6 | 0.00 | 0.00 | 0.00 | 86 | 1011.3 |
| 20260906010502 | 26 | 118 | 0.0 | 3.2 | 0.00 | 0.00 | 0.00 | 84 | 1011.2 |
| 20260906010002 | 26 | 118 | 1.6 | 3.2 | 0.00 | 0.00 | 0.00 | 83 | 1011.3 |
| 20260906005503 | 27 | 118 | 0.0 | 1.6 | 0.00 | 0.00 | 0.00 | 82 | 1011.3 |
| 20260906005002 | 27 | 118 | 0.0 | 1.6 | 0.00 | 0.00 | 0.00 | 81 | 1011.2 |
| 20260906004502 | 27 | 118 | 0.0 | 1.6 | 0.00 | 0.00 | 0.00 | 79 | 1011.2 |
| 20260906003503 | 28 | 118 | 0.0 | 3.2 | 0.00 | 0.00 | 0.00 | 77 | 1011.2 |
| 20260906002502 | 28 | 118 | 0.0 | 1.6 | 0.00 | 0.00 | 0.00 | 75 | 1011.2 |
| 20260906002002 | 28 | 118 | 1.6 | 1.6 | 0.00 | 0.00 | 0.00 | 74 | 1011.3 |
| 20260906001503 | 29 | 118 | 0.0 | 1.6 | 0.00 | 0.00 | 0.00 | 73 | 1011.3 |
| 20260906001002 | 29 | 118 | 0.0 | 3.2 | 0.00 | 0.00 | 0.00 | 72 | 1011.3 |
| 20260905235003 | 32 | 118 | 1.6 | 3.2 | 0.00 | 0.00 | 0.00 | 63 | 1011.4 |
| 20260905234503 | 33 | 118 | 0.0 | 3.2 | 0.00 | 0.00 | 0.00 | 59 | 1011.3 |
| 20260905234003 | 34 | 118 | 0.0 | 4.8 | 0.00 | 0.00 | 0.00 | 51 | 1011.3 |
| 20260905233503 | 35 | 171 | 1.6 | 6.4 | 0.00 | 0.00 | 0.00 | 48 | 1011.3 |
| 20260905233003 | 35 | 155 | 3.2 | 6.4 | 0.00 | 0.00 | 0.00 | 49 | 1011.2 |
| 20260905232503 | 34 | 142 | 1.6 | 3.2 | 0.00 | 0.00 | 0.00 | 55 | 1011.2 |
| 20260905232002 | 35 | 142 | 0.0 | 4.8 | 0.00 | 0.00 | 0.00 | 46 | 1011.2 |
| 20260905231503 | 35 | 93 | 0.0 | 6.4 | 0.00 | 0.00 | 0.00 | 49 | 1011.2 |
| 20260905231002 | 35 | 155 | 3.2 | 6.4 | 0.00 | 0.00 | 0.00 | 48 | 1011.2 |
| 20260905230503 | 35 | 189 | 1.6 | 6.4 | 0.00 | 0.00 | 0.00 | 51 | 1011.2 |
| 20260905230002 | 36 | 207 | 0.0 | 6.4 | 0.00 | 0.00 | 0.00 | 47 | 1011.2 |
| 20260905225502 | 36 | 189 | 3.2 | 6.4 | 0.00 | 0.00 | 0.00 | 47 | 1011.3 |
| 20260905225002 | 36 | 213 | 0.0 | 4.8 | 0.00 | 0.00 | 0.00 | 44 | 1011.3 |
| 20260905224502 | 36 | 213 | 0.0 | 8.0 | 0.00 | 0.00 | 0.00 | 45 | 1011.3 |
| 20260905224002 | 36 | 213 | 4.8 | 9.7 | 0.00 | 0.00 | 0.00 | 41 | 1011.3 |
| 20260905223503 | 37 | 317 | 3.2 | 11.3 | 0.00 | 0.00 | 0.00 | 40 | 1011.3 |
| 20260905223001 | 37 | 171 | 3.2 | 14.5 | 0.00 | 0.00 | 0.00 | 44 | 1011.3 |
| 20260905222503 | 37 | 130 | 8.0 | 14.5 | 0.00 | 0.00 | 0.00 | 43 | 1011.3 |
| 20260905222003 | 36 | 45 | 3.2 | 8.0 | 0.00 | 0.00 | 0.00 | 44 | 1011.4 |
| 20260905221502 | 37 | 3 | 3.2 | 6.4 | 0.00 | 0.00 | 0.00 | 40 | 1011.4 |
| 20260905220502 | 37 | 226 | 0.0 | 6.4 | 0.00 | 0.00 | 0.00 | 43 | 1011.6 |
| 20260905220003 | 36 | 213 | 1.6 | 9.7 | 0.00 | 0.00 | 0.00 | 44 | 1011.5 |
| 20260905215503 | 36 | 217 | 4.8 | 9.7 | 0.00 | 0.00 | 0.00 | 43 | 1011.5 |
| 20260905215002 | 37 | 116 | 3.2 | 8.0 | 0.00 | 0.00 | 0.00 | 42 | 1011.4 |
| 20260905214502 | 37 | 173 | 1.6 | 9.7 | 0.00 | 0.00 | 0.00 | 46 | 1011.4 |
| 20260905214002 | 37 | 61 | 3.2 | 9.7 | 0.00 | 0.00 | 0.00 | 41 | 1011.5 |
| 20260905213502 | 36 | 134 | 3.2 | 8.0 | 0.00 | 0.00 | 0.00 | 44 | 1011.5 |
| 20260905212502 | 35 | 241 | 1.6 | 9.7 | 0.00 | 0.00 | 0.00 | 44 | 1011.6 |
| 20260905212002 | 36 | 241 | 3.2 | 11.3 | 0.00 | 0.00 | 0.00 | 47 | 1011.8 |
| 20260905211003 | 37 | 178 | 6.4 | 9.7 | 0.00 | 0.00 | 0.00 | 41 | 1011.9 |
| 20260905210503 | 37 | 37 | 4.8 | 17.7 | 0.00 | 0.00 | 0.00 | 41 | 1011.9 |
| 20260905210002 | 37 | 145 | 8.0 | 17.7 | 0.00 | 0.00 | 0.00 | 42 | 1012.0 |
| 20260905205502 | 36 | 78 | 6.4 | 9.7 | 0.00 | 0.00 | 0.00 | 44 | 1012.0 |
| 20260905205002 | 36 | 188 | 1.6 | 16.1 | 0.00 | 0.00 | 0.00 | 43 | 1012.1 |
| 20260905203502 | 36 | 48 | 4.8 | 8.0 | 0.00 | 0.00 | 0.00 | 43 | 1012.3 |
| 20260905203002 | 35 | 65 | 3.2 | 4.8 | 0.00 | 0.00 | 0.00 | 45 | 1012.3 |
| 20260905202502 | 35 | 65 | 0.0 | 11.3 | 0.00 | 0.00 | 0.00 | 49 | 1012.4 |
| 20260905202003 | 36 | 65 | 4.8 | 16.1 | 0.00 | 0.00 | 0.00 | 42 | 1012.5 |
| 20260905201502 | 37 | 66 | 6.4 | 16.1 | 0.00 | 0.00 | 0.00 | 42 | 1012.5 |
| 20260905201002 | 37 | 145 | 6.4 | 16.1 | 0.00 | 0.00 | 0.00 | 41 | 1012.6 |
| 20260905200503 | 37 | 195 | 4.8 | 14.5 | 0.00 | 0.00 | 0.00 | 43 | 1012.7 |
| 20260905195002 | 37 | 195 | 6.4 | 19.3 | 0.00 | 0.00 | 0.00 | 43 | 1012.9 |
| 20260905194002 | 38 | 172 | 6.4 | 20.9 | 0.00 | 0.00 | 0.00 | 41 | 1013.0 |
| 20260905193503 | 38 | 161 | 8.0 | 20.9 | 0.00 | 0.00 | 0.00 | 42 | 1013.1 |
| 20260905192503 | 37 | 189 | 11.3 | 17.7 | 0.00 | 0.00 | 0.00 | 43 | 1013.0 |
| 20260905192002 | 37 | 192 | 4.8 | 11.3 | 0.00 | 0.00 | 0.00 | 45 | 1013.1 |
| 20260905191002 | 36 | 278 | 3.2 | 16.1 | 0.00 | 0.00 | 0.00 | 45 | 1013.2 |
| 20260905190502 | 36 | 190 | 4.8 | 14.5 | 0.00 | 0.00 | 0.00 | 44 | 1013.2 |
| 20260905190003 | 37 | 251 | 6.4 | 16.1 | 0.00 | 0.00 | 0.00 | 45 | 1013.3 |
| 20260905185502 | 37 | 310 | 4.8 | 17.7 | 0.00 | 0.00 | 0.00 | 43 | 1013.4 |